Regional Weather Roundup
Issued by NWS Cleveland, OH

Home | Current Version | Previous Version | Graphics & Text | Print | Product List | Glossary On
Versions: 1 2 3 4 5 6 7 8 9 10 11 12 13 14 15 16 17 18 19 20 21 22 23 24 25 26 27 28 29 30 31 32 33 34 35 36 37 38 39 40 41 42 43 44 45 46 47 48 49 50
000
ASUS41 KCLE 210302
RWRCLE
OHIO REGIONAL WEATHER ROUNDUP
NATIONAL WEATHER SERVICE CLEVELAND, OH
1000 PM EST SAT DEC 20 2014

NOTE: "FAIR" INDICATES FEW OR NO CLOUDS BELOW 12,000 FEET WITH NO
SIGNIFICANT WEATHER AND/OR OBSTRUCTIONS TO VISIBILITY.

OHZ001>008-015>018-024>027-034-035-043-044-210400-
   NORTHWEST OHIO

CITY           SKY/WX    TMP DP  RH WIND       PRES   REMARKS
DEFIANCE       PTCLDY    25  21  85 CALM      30.29S
FINDLAY        PTCLDY    28  24  85 S3        30.27F
TOLEDO EXPRESS CLOUDY    29  23  78 CALM      30.28F
TOLEDO EXEC    CLOUDY    30  24  78 SE5       30.30S WCI  25
LIMA           CLOUDY    32  25  75 S3        30.27S HAZE
$$

OHZ009>014-019>023-028>033-038-089-210400-
   NORTHEAST OHIO

CITY           SKY/WX    TMP DP  RH WIND       PRES   REMARKS
CLE-HOPKINS    CLOUDY    30  22  72 SW3       30.32R
CLE-LAKEFRONT  CLOUDY    32  23  69 W7        30.29S WCI  26
CUY CO. ARPT   CLOUDY    32  27  80 CALM      30.29S
LORAIN-ELYRIA  CLOUDY    29  24  82 CALM      30.30R
ASHTABULA      CLOUDY    30  24  78 CALM      30.28S
AKRON-CANTON   CLOUDY    29  23  78 CALM      30.27R
WOOSTER        CLOUDY    29  22  75 CALM      30.28R
MANSFIELD      CLOUDY    28  23  81 CALM      30.26S
YOUNGSTOWN     CLOUDY    28  22  78 CALM      30.26S
$$

OHZ042-051>053-060>062-070>072-077>081-210400-
  SOUTHWEST OHIO

CITY           SKY/WX    TMP DP  RH WIND       PRES   REMARKS
CINC-COVINGTON CLOUDY    32  24  72 CALM      30.28F HAZE
CINC-LUNKEN    CLOUDY    31  27  85 CALM      30.32F
HAMILTON       PTCLDY    23  21  92 CALM      30.31F FOG
DAYTON         MOCLDY    30  23  75 CALM      30.28F
WRIGHT-PAT AFB NOT AVBL
DAYTON GENERAL CLEAR     28  23  81 CALM      30.27F
WILMINGTON     CLOUDY    29  24  82 CALM      30.28S HAZE
$$

OHZ036-037-039>041-045>050-054>059-063>069-073>076-082>088-210400-
  CENTRAL AND SOUTHEAST OHIO

CITY           SKY/WX    TMP DP  RH WIND       PRES   REMARKS
COLUMBUS       CLOUDY    30  24  78 CALM      30.29S
OSU AIRPORT    CLOUDY    30  24  78 W3        30.28S
BOLTON FIELD   NOT AVBL
RICKENBACK AFB CLOUDY    30  26  85 CALM      30.29S FOG
NEWARK         CLOUDY    31  25  78 NW3       30.28S
MARION         CLOUDY    29  24  82 CALM      30.28F
LANCASTER      CLOUDY    38  25  59 CALM      30.30R
ZANESVILLE     CLOUDY    30  23  75 CALM      30.28R
NEW PHILLY     CLOUDY    31  21  66 CALM      30.29S
$$



USA.gov is the U.S. government's official web portal to all federal, state and local government web resources and services.